USA 255

operational
NORAD ID: 40101 Int'l Des: 2014-043 Owner: AFRL Country: US
HEOCIRCULAR

About USA 255

Description loading...

Live Position

Loading 3D Globe...

Upcoming Passes

Altitude History

Altitude vs Time

uPlot chart will show altitude changes over time

Two-Line Element Set

1 40101U 14043C 26062.26463417 -.00000214 00000-0 00000-0 0 9995
2 40101 8.9890 58.3119 0014181 320.8119 52.2700 0.98728845 24269
Epoch: Mar 3, 2026 • Age: 45 hours

Current Status

Altitude 36234.3 km
Velocity 3.06 km/s
Sub-Earth Point -5.97°S, 165.7°E
Launch Date Jul 28, 2014
Age 11.6 years
Type military

Technical Details

Classification Payload
Mass 70.00 kg
Dry Mass 70.00 kg
Total Mass 70.00 kg
Length 0.50 m
Diameter 0.50 m
Span 0.50 m
Shape Box + pan
Manufacturer OSCD
Bus Type ANGELS
Phase Status In Orbit
Owner/State AFRL/US

Large Constellations

Loading constellations...